Date,TemperatureHighF,TemperatureAvgF,TemperatureLowF,DewpointHighF,DewpointAvgF,DewpointLowF,HumidityHigh,HumidityAvg,HumidityLow,PressureMaxIn,PressureMinIn,WindSpeedMaxMPH,WindSpeedAvgMPH,GustSpeedMaxMPH,PrecipitationSumIn
2013-10-1,67,57,52,22,21,19,30,25,17,0.00,40.00,7,3,13,0.00
2013-10-2,68,57,48,26,20,16,30,24,15,0.00,40.00,9,3,16,0.00
2013-10-3,61,53,36,31,26,19,74,37,26,0.00,40.00,18,7,33,0.00
2013-10-4,42,34,26,28,19,12,93,59,32,0.00,40.00,18,11,33,0.00
2013-10-5,51,37,25,21,16,8,78,45,22,0.00,40.00,12,8,30,0.00
2013-10-6,60,46,33,23,16,7,44,32,20,0.00,40.00,10,4,15,0.00
2013-10-7,67,53,43,26,21,18,42,30,17,0.00,40.00,10,4,16,0.00
2013-10-8,63,56,45,27,22,16,34,27,22,0.00,40.00,11,6,27,0.00
2013-10-9,58,53,46,33,22,15,54,31,19,0.00,40.00,16,10,43,0.01
2013-10-10,49,38,32,38,33,28,97,83,52,0.00,40.00,11,7,34,0.94
2013-10-11,48,37,32,34,32,30,97,83,53,0.00,40.00,8,4,14,0.01
2013-10-12,52,42,33,34,28,-100,95,64,35,0.00,40.00,13,6,24,0.00
2013-10-13,59,52,46,35,30,21,54,44,33,0.00,40.00,16,11,30,0.00
2013-10-14,48,41,32,30,26,20,81,58,36,0.00,40.00,9,6,24,0.00
2013-10-15,48,39,32,28,22,17,70,52,33,0.00,40.00,10,4,17,0.00
2013-10-16,45,34,25,26,23,14,91,65,31,0.00,40.00,14,6,25,0.00
2013-10-17,49,42,32,18,14,10,53,33,20,0.00,40.00,10,5,19,0.00
2013-10-18,48,39,31,19,11,3,54,34,17,0.00,40.00,17,10,31,0.00
2013-10-19,52,45,39,18,14,-100,39,29,19,0.00,40.00,14,9,29,0.00
2013-10-20,55,49,39,17,14,11,37,25,18,0.00,40.00,16,9,29,0.00
2013-10-21,57,49,39,18,13,9,42,25,15,0.00,40.00,11,7,20,0.00
2013-10-22,58,46,35,21,16,8,40,30,21,0.00,40.00,9,5,14,0.00
2013-10-23,62,54,45,22,19,16,36,25,18,0.00,40.00,9,5,13,0.00
2013-10-24,64,54,46,33,21,15,55,28,18,0.00,40.00,12,7,25,0.00
2013-10-25,56,45,39,40,35,33,88,70,48,0.00,40.00,10,7,19,0.18
2013-10-26,57,45,38,38,32,-100,83,63,33,0.00,40.00,9,3,16,0.03
2013-10-27,56,48,39,34,30,25,74,51,33,0.00,40.00,11,5,20,0.00
2013-10-28,52,46,40,28,26,18,58,46,32,0.00,40.00,16,10,28,0.00
2013-10-29,44,38,30,34,27,18,98,67,35,0.00,40.00,13,7,29,0.23
2013-10-30,34,30,26,31,28,24,98,94,84,0.00,40.00,10,3,20,0.50
2013-10-31,36,30,24,27,23,21,92,75,58,0.00,40.00,16,8,27,0.36